Weather History for Baker, MT

Change the Weather History Date:

Sunday, June 16, 2013

  Actual Average Record
Temperature  
Mean Temperature 59 °F -  
Max Temperature 75 °F 64 °F 84 °F (2002)
Min Temperature 45 °F 48 °F 39 °F (2000)
Degree Days  
Heating Degree Days 6    
Growing Degree Days 9 (Base 50)    
Moisture  
Dew Point 44 °F    
Average Humidity 55    
Maximum Humidity 82    
Minimum Humidity 33    
Precipitation  
Precipitation 0.00 in - - ()
Sea Level Pressure  
Sea Level Pressure 30.02 in    
Wind  
Wind Speed 5 mph (NW)    
Max Wind Speed 17 mph    
Max Gust Speed 28 mph    
Visibility 10 miles    
Events      
Averages and records for this station are not official NWS values.
T = Trace of Precipitation, MM = Missing Value Source: NWS Daily Summary

Daily Weather History Graph

Daily Weather History Graph

Search for Another Location

Airport:

Trip Planner

Search our weather history database for the weather conditions in past years. The results will help you decide how hot, cold, wet, or windy it might be!

Date:

Astronomy

Jun. 16, 2013 Rise Set
Actual Time 5:04 AM MDT 8:51 PM MDT
Civil Twilight 4:25 AM MDT 9:30 PM MDT
Nautical Twilight 3:32 AM MDT 10:23 PM MDT
Astronomical Twilight 2:17 AM MDT 11:38 PM MDT
Moon 1:08 PM MDT (6/16) 12:34 AM MDT (6/16)
Length of Visible Light 17h 05m
Length of Day
15h 47m
Waxing Crescent, 50% of the Moon is Illuminated
Jun 16
Waxing Crescent
Jun 23
Full
Jun 29
Last Quarter
Jul 8
New
Jul 15
First Quarter

Hourly Weather History & Observations

Time (MDT) Temp. Windchill Dew Point Humidity Pressure Visibility Wind Dir Wind Speed Gust Speed Precip Events Conditions
12:51 AM 55.0 °F - 41.0 °F 59% 29.98 in 10.0 mi Calm Calm - N/A   Clear
1:51 AM 50.0 °F - 41.0 °F 71% 29.98 in 10.0 mi Calm Calm - N/A   Clear
2:51 AM 48.9 °F - 42.1 °F 77% 29.98 in 10.0 mi Calm Calm - N/A   Clear
3:51 AM 45.0 °F 41.8 °F 39.9 °F 82% 29.98 in 10.0 mi South 5.8 mph - N/A   Clear
4:51 AM 46.0 °F - 39.0 °F 76% 29.98 in 10.0 mi Calm Calm - N/A   Clear
5:51 AM 48.0 °F - 41.0 °F 77% 29.99 in 10.0 mi Calm Calm - N/A   Clear
6:51 AM 54.0 °F - 46.0 °F 75% 29.99 in 10.0 mi Calm Calm - N/A   Clear
7:51 AM 63.0 °F - 50.0 °F 63% 29.99 in 10.0 mi Calm Calm - N/A   Clear
8:51 AM 64.9 °F - 46.0 °F 50% 30.01 in 10.0 mi NNW 11.5 mph - N/A   Clear
9:51 AM 66.9 °F - 46.0 °F 47% 30.01 in 10.0 mi NW 13.8 mph - N/A   Clear
10:51 AM 69.1 °F - 46.9 °F 45% 30.02 in 10.0 mi NNW 11.5 mph - N/A   Clear
11:51 AM 70.0 °F - 44.1 °F 39% 30.03 in 10.0 mi WNW 11.5 mph - N/A   Clear
12:51 PM 72.0 °F - 46.0 °F 40% 30.02 in 10.0 mi WNW 16.1 mph 24.2 mph N/A   Clear
1:51 PM 73.0 °F - 44.1 °F 35% 30.03 in 10.0 mi WNW 17.3 mph 25.3 mph N/A   Clear
2:51 PM 73.9 °F - 43.0 °F 33% 30.02 in 10.0 mi WNW 13.8 mph 27.6 mph N/A   Clear
3:51 PM 73.9 °F - 45.0 °F 35% 30.03 in 10.0 mi NW 17.3 mph 26.5 mph N/A   Scattered Clouds
4:51 PM 73.0 °F - 45.0 °F 37% 30.03 in 10.0 mi NW 13.8 mph 24.2 mph N/A   Partly Cloudy
5:51 PM 73.0 °F - 45.0 °F 37% 30.03 in 10.0 mi NNW 11.5 mph - N/A   Scattered Clouds
6:51 PM 71.1 °F - 46.0 °F 41% 30.03 in 10.0 mi NW 15.0 mph 21.9 mph N/A   Clear
7:51 PM 68.0 °F - 45.0 °F 43% 30.04 in 10.0 mi NW 11.5 mph - N/A   Clear
8:51 PM 63.0 °F - 45.0 °F 52% 30.06 in 10.0 mi NW 10.4 mph - N/A   Clear
9:51 PM 59.0 °F - 46.0 °F 62% 30.08 in 10.0 mi WNW 5.8 mph - N/A   Clear
10:51 PM 55.9 °F - 46.0 °F 69% 30.08 in 10.0 mi Calm Calm - N/A   Clear
11:51 PM 55.0 °F - 46.0 °F 72% 30.09 in 10.0 mi Calm Calm - N/A   Clear